Total_Precipitation_Accumulation
2.77 2.99 3.98 3.98 3.51 3.16 2.98 2.90 2.91 2.92 2.61 2.57 2.74 2.73 2.91 3.08 3.22 3.24 3.21 3.39 3.74 4.34 4.86 4.90 4.54 4.21 3.98 3.83 3.68 3.35 3.22 3.25 3.42 3.61 3.74 3.87 4.03 3.94 3.97 3.83 3.63 2.77 2.78
2.45 2.74 3.65 3.81 3.38 3.12 2.94 2.86 2.96 2.71 2.55 2.61 2.80 2.86 3.13 3.32 3.35 3.34 3.39 3.54 3.73 4.27 4.73 4.41 3.97 3.70 3.61 3.46 3.18 2.98 3.08 3.41 3.59 3.83 3.99 3.91 4.22 4.25 4.07 3.77 3.71 2.75 2.64
2.05 2.24 2.81 3.40 3.28 3.12 2.96 2.89 2.83 2.55 2.52 2.71 2.95 2.97 3.11 3.26 3.41 3.50 3.67 3.78 4.00 4.40 4.25 3.83 3.40 3.26 3.18 3.04 2.95 2.97 3.24 3.68 3.85 4.16 4.43 3.51 3.50 4.19 4.13 3.79 3.44 2.73 2.44
1.71 1.92 2.29 2.85 2.98 2.90 2.80 2.73 2.60 2.50 2.52 2.78 3.09 2.97 3.05 3.18 3.34 3.57 3.91 3.92 3.98 3.96 3.57 3.43 3.11 2.90 2.74 2.80 2.83 2.95 3.33 3.68 4.05 4.39 4.14 2.97 2.75 3.54 3.80 3.52 3.30 2.81 2.39
1.52 1.74 2.27 2.62 2.68 2.82 2.90 3.03 2.79 2.76 2.82 3.06 3.14 2.94 2.94 2.95 3.10 3.43 4.02 3.94 3.68 3.41 3.21 3.21 2.97 2.81 2.51 2.47 2.68 2.96 3.21 3.63 4.21 3.92 3.00 2.85 2.86 3.21 3.23 3.08 3.18 2.90 2.46
1.40 1.73 2.22 2.49 2.39 2.60 2.98 3.08 3.02 3.04 3.18 3.27 3.00 2.94 2.90 2.92 2.95 3.19 3.53 3.50 3.39 3.12 3.06 2.99 2.83 2.60 2.45 2.44 2.69 3.00 3.33 3.97 4.07 2.83 2.46 2.59 2.62 2.93 3.01 3.11 3.11 2.91 2.67
1.47 1.82 2.02 2.42 2.19 2.19 2.60 2.97 3.20 3.34 3.51 3.32 2.89 2.69 2.64 2.66 2.72 2.83 3.00 3.05 3.03 2.84 2.79 2.75 2.68 2.46 2.49 2.49 2.64 2.90 3.38 3.97 3.46 2.56 2.49 2.68 2.56 2.54 2.80 3.07 3.16 2.96 2.90
1.54 1.68 1.97 2.23 2.07 2.09 2.24 2.40 2.68 3.07 3.31 3.05 2.69 2.51 2.40 2.30 2.31 2.42 2.63 2.84 2.81 2.63 2.47 2.44 2.46 2.48 2.44 2.30 2.37 2.77 3.30 3.30 2.82 2.37 2.28 2.54 2.39 2.41 2.73 2.98 3.02 2.97 3.02
1.76 1.95 1.98 1.88 1.89 2.05 2.26 2.44 2.55 2.86 2.92 2.75 2.62 2.43 2.29 2.19 2.24 2.26 2.32 2.63 2.65 2.52 2.44 2.42 2.42 2.39 2.34 2.26 2.36 2.72 3.06 3.18 2.81 2.59 2.26 2.35 2.16 2.42 2.90 2.98 2.91 2.97 3.09
1.96 1.95 1.88 1.71 1.77 1.82 2.08 2.54 2.68 2.73 2.73 2.67 2.57 2.48 2.32 2.23 2.38 2.39 2.20 2.62 2.75 2.73 2.64 2.65 2.72 2.44 2.38 2.50 2.63 3.04 3.30 3.20 2.68 2.69 2.87 2.42 2.16 2.53 3.11 3.15 2.93 2.92 3.04
2.24 2.09 1.90 1.56 1.70 1.91 2.14 2.32 2.50 2.58 2.74 2.83 2.79 2.65 2.62 2.71 2.72 2.84 2.62 3.12 3.28 3.19 3.05 3.06 3.12 2.96 2.87 2.74 3.01 3.33 3.42 2.95 2.82 3.09 3.05 2.38 2.30 2.84 3.37 3.18 3.02 3.05 3.07
2.51 2.31 2.06 1.77 1.80 2.07 2.06 2.09 2.32 2.34 2.55 2.72 2.91 2.79 3.10 3.42 3.26 2.61 3.00 3.57 3.92 3.95 3.75 3.74 3.82 3.57 3.20 2.90 3.50 3.90 3.32 3.14 3.25 3.26 3.10 2.79 2.93 3.43 3.85 3.59 3.43 3.37 3.28
2.41 2.33 2.29 2.15 2.14 2.04 2.18 2.17 2.37 2.59 3.01 2.95 2.90 2.88 3.33 3.23 2.94 2.75 3.12 3.65 4.19 4.09 3.85 3.91 4.06 3.55 3.54 3.86 4.15 4.17 3.68 3.57 3.59 3.56 3.32 3.21 3.52 4.07 4.61 4.39 3.81 3.54 3.43
2.85 2.73 2.68 2.59 2.52 2.55 2.50 2.39 2.33 2.45 2.73 2.88 3.14 2.89 3.22 3.54 3.48 3.44 3.80 3.81 4.13 4.32 4.71 4.48 4.58 4.28 4.15 3.94 4.05 4.29 4.21 4.28 3.95 4.06 4.15 3.87 4.00 4.55 5.13 5.20 4.61 4.09 3.76
3.25 3.15 3.15 3.07 3.08 3.14 3.14 2.99 2.47 2.64 2.74 2.88 3.23 3.27 3.39 3.77 3.96 4.04 4.09 4.06 3.77 4.09 4.56 4.86 4.43 4.72 4.71 4.22 3.89 3.80 3.88 4.04 4.17 4.42 4.43 4.65 4.57 4.69 5.30 5.70 5.33 4.92 4.63
3.35 3.59 3.81 3.74 3.66 3.72 3.66 3.56 3.34 3.13 3.35 3.33 3.52 3.76 3.95 4.32 4.56 4.51 4.33 4.27 3.87 3.79 4.14 4.37 4.36 4.87 4.69 4.36 3.69 3.54 3.63 4.01 4.32 4.39 4.46 4.99 4.94 4.74 4.93 5.58 5.95 5.83 5.46
3.50 4.12 4.51 4.52 4.42 4.48 4.47 4.18 3.89 3.85 3.86 4.16 4.46 4.53 4.53 4.68 5.04 4.84 4.59 4.18 3.92 3.90 4.14 4.12 4.18 4.34 4.11 3.97 3.70 3.74 3.79 3.98 4.13 4.35 4.59 4.97 4.83 4.45 4.46 4.86 5.69 6.20 6.39
3.85 4.57 4.99 5.09 5.30 5.22 5.30 5.08 4.65 4.56 4.57 4.63 4.79 5.00 4.76 4.75 4.68 4.81 4.49 3.98 3.98 3.90 3.99 4.21 4.09 4.16 4.13 4.09 4.04 3.81 3.83 3.92 3.67 3.83 4.07 4.27 4.54 4.10 4.25 4.51 4.98 5.59 6.53
4.24 4.99 5.56 6.14 6.36 6.19 5.97 5.66 5.38 5.38 5.23 5.06 5.05 5.06 4.93 4.59 4.38 4.64 4.39 4.15 3.99 3.93 3.85 3.63 4.14 4.28 4.31 4.30 3.94 3.86 3.51 3.27 3.14 3.05 3.17 3.19 3.59 3.83 4.10 4.22 4.66 5.11 6.11
4.36 5.14 5.90 6.65 6.86 6.59 6.08 5.91 5.91 5.74 5.44 5.16 4.94 4.94 4.63 4.39 4.00 4.26 3.99 3.91 3.99 4.18 4.06 4.14 4.51 4.49 4.13 4.23 3.74 3.59 3.44 3.04 2.95 2.90 2.73 2.78 2.87 2.98 3.56 4.21 4.95 4.64 5.10
4.55 5.27 5.95 6.58 6.73 6.60 6.29 6.01 5.78 5.37 5.08 4.75 4.50 4.39 4.19 3.86 3.69 4.08 3.72 4.08 3.94 3.90 3.79 3.80 4.07 4.08 3.68 3.88 4.26 3.84 3.24 2.84 2.78 2.65 2.64 2.75 2.61 2.80 3.34 4.05 4.62 4.77 4.51
4.32 4.90 5.29 5.43 5.28 5.20 5.32 5.31 5.05 5.07 4.91 4.85 4.73 4.63 4.14 3.91 3.79 3.52 3.76 3.56 3.54 3.76 3.56 3.55 3.83 3.77 3.39 3.73 4.04 4.18 3.63 3.36 2.82 2.18 2.41 2.62 2.72 3.02 3.07 3.23 3.90 4.45 4.34
3.80 4.12 4.13 4.15 4.18 4.35 4.45 4.43 4.49 4.75 4.84 4.94 4.93 4.72 4.33 4.10 3.92 3.70 3.54 3.39 3.41 3.22 3.41 3.50 3.57 3.70 3.67 3.57 3.63 4.03 3.77 3.39 2.90 2.35 2.18 2.47 2.91 3.28 3.19 3.21 3.23 3.64 3.90
3.07 3.21 3.19 3.33 3.53 3.68 3.78 3.77 3.68 3.73 4.00 4.29 4.58 4.76 4.70 4.39 4.10 3.79 3.53 3.32 3.18 2.98 3.29 2.97 3.11 3.47 3.73 3.40 3.35 3.28 3.27 3.46 3.37 2.96 2.44 2.26 2.52 2.82 2.89 2.76 2.88 3.25 3.57
2.28 2.45 2.52 2.80 3.31 3.54 3.60 3.71 3.67 3.43 3.46 3.59 3.75 3.99 4.00 4.03 3.86 3.47 3.35 3.28 3.11 2.90 2.94 2.94 3.30 3.30 3.27 3.20 3.27 3.23 3.36 3.59 3.35 3.20 2.88 2.75 2.82 2.64 2.50 2.51 2.62 2.87 3.23
1.87 2.03 2.26 2.61 3.20 3.51 3.58 3.48 3.52 3.56 3.65 3.56 3.53 3.63 3.55 3.54 3.48 3.16 3.02 3.15 3.06 2.94 2.98 2.97 3.07 3.12 3.26 3.32 3.32 3.32 3.41 3.41 3.44 3.62 3.23 3.04 3.03 2.67 2.49 2.51 2.63 2.80 3.03